Time,TemperatureF,DewpointF,PressureIn,WindDirection,WindDirectionDegrees,WindSpeedMPH,WindSpeedGustMPH,Humidity,HourlyPrecipIn,Conditions,Clouds,dailyrainin,SoftwareType,DateUTC
2013-06-07 20:13:00,63.5,43.5,29.14,NE,45,0.0,0.0,48,0.00,,,0.00,meteohub,2013-06-08 00:13:00,
2013-06-07 20:14:00,63.5,43.5,29.14,NE,45,0.0,0.0,48,0.00,,,0.00,meteohub,2013-06-08 00:14:00,
2013-06-07 20:19:00,63.3,43.3,29.14,ENE,68,0.0,0.0,48,0.00,,,0.00,meteohub,2013-06-08 00:19:00,
2013-06-07 20:25:00,62.8,42.8,29.14,NE,45,0.0,0.0,48,0.00,,,0.00,meteohub,2013-06-08 00:25:00,
2013-06-07 20:32:00,62.1,42.1,29.14,ESE,113,0.0,0.0,48,0.00,,,0.00,meteohub,2013-06-08 00:32:00,
2013-06-07 20:37:00,61.9,41.9,29.14,ESE,113,0.0,0.0,48,0.00,,,0.00,meteohub,2013-06-08 00:37:00,
2013-06-07 20:43:00,61.9,41.9,29.14,ENE,68,0.0,0.0,48,0.00,,,0.00,meteohub,2013-06-08 00:43:00,
2013-06-07 20:49:00,61.7,42.3,29.14,SW,225,2.0,0.0,49,0.00,,,0.00,meteohub,2013-06-08 00:49:00,
2013-06-07 20:55:00,61.2,42.4,29.14,SW,225,0.0,2.0,50,0.00,,,0.00,meteohub,2013-06-08 00:55:00,
2013-06-07 21:02:00,60.6,43.0,29.14,SSW,203,2.0,2.0,52,0.00,,,0.00,meteohub,2013-06-08 01:02:00,
2013-06-07 21:07:00,60.3,42.6,29.14,SW,225,0.0,3.0,52,0.00,,,0.00,meteohub,2013-06-08 01:07:00,
2013-06-07 21:15:00,59.5,41.9,29.14,WSW,248,0.0,3.0,52,0.00,,,0.00,meteohub,2013-06-08 01:15:00,
2013-06-07 21:22:00,59.0,41.9,29.14,East,90,2.0,3.0,53,0.00,,,0.00,meteohub,2013-06-08 01:22:00,
2013-06-07 21:27:00,58.5,41.4,29.14,WNW,293,0.0,2.0,53,0.00,,,0.00,meteohub,2013-06-08 01:27:00,
2013-06-07 21:32:00,57.9,41.9,29.14,SSW,203,2.0,2.0,55,0.00,,,0.00,meteohub,2013-06-08 01:32:00,
2013-06-07 21:37:00,57.4,41.4,29.14,NNE,23,0.0,2.0,55,0.00,,,0.00,meteohub,2013-06-08 01:37:00,
2013-06-07 21:42:00,57.0,41.0,29.14,SW,225,0.0,2.0,55,0.00,,,0.00,meteohub,2013-06-08 01:42:00,
2013-06-07 21:47:00,56.5,40.5,29.14,West,270,0.0,2.0,55,0.00,,,0.00,meteohub,2013-06-08 01:47:00,
2013-06-07 21:52:00,55.9,41.0,29.14,NE,45,0.0,0.0,57,0.00,,,0.00,meteohub,2013-06-08 01:52:00,
2013-06-07 21:57:00,55.4,40.8,29.14,NNE,23,0.0,0.0,58,0.00,,,0.00,meteohub,2013-06-08 01:57:00,
2013-06-07 22:02:00,54.9,40.3,29.14,SSW,203,0.0,0.0,58,0.00,,,0.00,meteohub,2013-06-08 02:02:00,
2013-06-07 22:07:00,54.5,40.1,29.14,WSW,248,0.0,0.0,58,0.00,,,0.00,meteohub,2013-06-08 02:07:00,
2013-06-07 22:12:00,54.1,39.7,29.14,NNE,23,0.0,0.0,58,0.00,,,0.00,meteohub,2013-06-08 02:12:00,
2013-06-07 22:17:00,53.8,39.7,29.14,NE,45,0.0,0.0,59,0.00,,,0.00,meteohub,2013-06-08 02:17:00,
2013-06-07 22:22:00,53.6,39.6,29.14,NNE,23,0.0,0.0,59,0.00,,,0.00,meteohub,2013-06-08 02:22:00,
2013-06-07 22:27:00,53.4,39.4,29.14,SSW,203,0.0,0.0,59,0.00,,,0.00,meteohub,2013-06-08 02:27:00,
2013-06-07 22:33:00,53.1,39.6,29.14,NW,315,0.0,0.0,60,0.00,,,0.00,meteohub,2013-06-08 02:33:00,
2013-06-07 22:39:00,52.9,39.4,29.14,NNE,23,0.0,0.0,60,0.00,,,0.00,meteohub,2013-06-08 02:39:00,
2013-06-07 22:47:00,52.3,39.7,29.14,WSW,248,0.0,0.0,62,0.00,,,0.00,meteohub,2013-06-08 02:47:00,
2013-06-07 22:52:00,52.2,39.6,29.14,WNW,293,0.0,0.0,62,0.00,,,0.00,meteohub,2013-06-08 02:52:00,
2013-06-07 22:57:00,52.0,39.7,29.14,NNE,23,0.0,0.0,63,0.00,,,0.00,meteohub,2013-06-08 02:57:00,
2013-06-07 23:02:00,51.6,39.4,29.14,NNE,23,0.0,0.0,63,0.00,,,0.00,meteohub,2013-06-08 03:02:00,
2013-06-07 23:07:00,51.4,39.2,29.14,WNW,293,0.0,0.0,63,0.00,,,0.00,meteohub,2013-06-08 03:07:00,
2013-06-07 23:12:00,51.3,39.6,29.14,WSW,248,0.0,0.0,64,0.00,,,0.00,meteohub,2013-06-08 03:12:00,
2013-06-07 23:17:00,51.3,39.6,29.14,North,0,0.0,0.0,64,0.00,,,0.00,meteohub,2013-06-08 03:17:00,
2013-06-07 23:22:00,51.1,39.7,29.14,NNE,23,0.0,0.0,65,0.00,,,0.00,meteohub,2013-06-08 03:22:00,
2013-06-07 23:27:00,50.9,39.6,29.14,NE,45,0.0,0.0,65,0.00,,,0.00,meteohub,2013-06-08 03:27:00,
2013-06-07 23:32:00,50.5,39.6,29.14,East,90,0.0,0.0,66,0.00,,,0.00,meteohub,2013-06-08 03:32:00,
2013-06-07 23:37:00,50.4,39.4,29.14,ENE,68,0.0,0.0,66,0.00,,,0.00,meteohub,2013-06-08 03:37:00,
2013-06-07 23:42:00,50.4,39.7,29.14,NE,45,0.0,0.0,67,0.00,,,0.00,meteohub,2013-06-08 03:42:00,
2013-06-07 23:47:00,50.2,39.6,29.14,NE,45,0.0,0.0,67,0.00,,,0.00,meteohub,2013-06-08 03:47:00,
2013-06-07 23:52:00,50.2,39.6,29.14,NE,45,0.0,0.0,67,0.00,,,0.00,meteohub,2013-06-08 03:52:00,
2013-06-07 23:57:00,50.2,40.1,29.14,NE,45,0.0,0.0,68,0.00,,,0.00,meteohub,2013-06-08 03:57:00,